This is the latest recevied weather packets stored in our database for station/object KD4WXI. If no packets are shown the sender has not sent any weather packets the latest 1 day(s).
| Time | Temp. | Humidity | Pressure | Rain* | Wind** | Luminosity | Snow |
|---|---|---|---|---|---|---|---|
| 1777989855 | 21.67° C | 56% | 1017.3 hPa | 0 mm | 0.45 m/s, 340° | 456 W/m² | - |
| 1777989552 | 21.11° C | 59% | 1017.3 hPa | 0 mm | 0.45 m/s, 259° | 459 W/m² | - |
| 1777989249 | 21.11° C | 57% | 1017 hPa | 0 mm | 1.34 m/s, 234° | 440 W/m² | - |
| 1777988945 | 20.56° C | 57% | 1017 hPa | 0 mm | 0.45 m/s, 192° | 428 W/m² | - |
| 1777988641 | 20.56° C | 60% | 1017.2 hPa | 0 mm | 0.89 m/s, 237° | 405 W/m² | - |
| 1777988338 | 20.56° C | 61% | 1017.1 hPa | 0 mm | 0.89 m/s, 244° | 398 W/m² | - |
| 1777988035 | 20° C | 60% | 1017.3 hPa | 0 mm | 0.89 m/s, 243° | 384 W/m² | - |
| 1777987731 | 20° C | 61% | 1017.3 hPa | 0 mm | 0.89 m/s, 249° | 367 W/m² | - |
| 1777987428 | 19.44° C | 63% | 1017.1 hPa | 0 mm | 0.89 m/s, 124° | 351 W/m² | - |
| 1777987125 | 19.44° C | 64% | 1016.9 hPa | 0 mm | 0.45 m/s, 246° | 338 W/m² | - |
| 1777986822 | 19.44° C | 64% | 1017 hPa | 0 mm | 0.89 m/s, 249° | 322 W/m² | - |
| 1777986520 | 18.89° C | 65% | 1017 hPa | 0 mm | 0.89 m/s, 300° | 309 W/m² | - |
| 1777986218 | 18.89° C | 66% | 1017.4 hPa | 0 mm | 0.89 m/s, 263° | 292 W/m² | - |
| 1777985915 | 18.89° C | 66% | 1017 hPa | 0 mm | 0.45 m/s, 269° | 278 W/m² | - |
| 1777985612 | 18.33° C | 68% | 1017.1 hPa | 0 mm | 0 m/s | 261 W/m² | - |
| 1777985309 | 17.78° C | 70% | 1017.1 hPa | 0 mm | 0 m/s | 236 W/m² | - |
| 1777985006 | 17.78° C | 69% | 1017.2 hPa | 0 mm | 0.89 m/s, 278° | 184 W/m² | - |
| 1777984702 | 17.78° C | 71% | 1017 hPa | 0 mm | 0 m/s | 73 W/m² | - |
| 1777984398 | 17.78° C | 72% | 1017 hPa | 0 mm | 0 m/s | 45 W/m² | - |
| 1777984094 | 17.22° C | 72% | 1017.1 hPa | 0 mm | 0.45 m/s, 288° | 69 W/m² | - |
| 1777983792 | 16.67° C | 73% | 1016.9 hPa | 0 mm | 0.45 m/s, 297° | 168 W/m² | - |
| 1777983488 | 16.67° C | 74% | 1016.8 hPa | 0 mm | 0.45 m/s, 243° | 91 W/m² | - |
| 1777983186 | 16.67° C | 73% | 1016.7 hPa | 0 mm | 0 m/s | 57 W/m² | - |
| 1777982882 | 16.11° C | 75% | 1016.9 hPa | 0 mm | 0 m/s | 36 W/m² | - |
| 1777982578 | 16.11° C | 76% | 1016.9 hPa | 0 mm | 0 m/s | 34 W/m² | - |
* Rain latest hour (hover to see other rain measurements)
** Current wind speed in m/s (hover to see current wind gust speed)